RH
6 4 3 4 4 6 19 55 87 29 31 58 79 88 59 42 49 58 64 73 80 92 82 96 95 91 73 63 57 88 84 97 98 74 95 92 93 96 94 96 96 97 91 100
3 3 3 4 6 8 30 78 75 37 8 83 97 62 60 40 57 63 71 81 69 75 90 98 91 75 53 61 64 92 92 96 97 77 96 71 95 93 94 95 96 97 93 100
3 3 3 3 5 10 41 63 86 56 45 69 88 90 81 62 56 60 76 84 69 89 96 82 92 87 68 64 66 69 82 96 98 97 99 95 94 91 93 96 98 97 99 97
3 3 3 3 4 8 37 64 85 64 85 78 91 82 88 94 87 70 76 77 91 97 100 95 96 89 74 70 67 72 94 97 93 96 96 88 90 94 93 95 98 97 98 96
5 5 4 4 3 7 7 66 82 49 80 54 82 86 95 98 87 86 86 97 92 96 98 96 96 95 98 100 84 74 84 98 92 98 96 74 83 86 82 92 96 95 94 98
6 6 6 5 4 4 11 36 46 15 71 83 76 87 86 82 87 69 78 95 100 100 92 94 92 97 93 98 99 79 92 99 97 98 96 95 80 99 96 94 95 98 99 99
8 7 7 7 6 5 5 10 32 12 72 94 89 85 90 90 85 98 75 84 100 56 58 76 95 100 100 99 92 56 83 92 97 98 95 94 97 95 95 97 97 96 96 97
9 9 8 8 8 7 6 5 9 10 76 72 58 65 96 68 64 78 92 69 54 48 75 87 66 65 56 61 62 57 66 94 98 96 96 98 96 94 96 97 98 89 92 88
11 11 9 9 9 10 9 7 10 30 34 56 57 88 84 100 100 82 65 43 33 52 96 81 92 90 87 70 65 43 57 59 83 83 93 100 94 72 52 88 86 79 73 81
11 12 13 10 12 10 12 14 11 12 25 38 40 46 63 65 78 100 78 66 44 51 89 86 88 80 77 79 98 93 86 85 86 93 88 75 80 57 56 70 65 64 70 67
12 12 13 13 12 13 12 16 19 20 32 38 40 45 51 45 53 86 45 57 52 78 89 89 92 82 81 84 88 100 99 86 99 83 64 68 56 34 41 47 36 50 66 65
11 13 14 14 15 15 16 13 15 17 22 33 36 37 45 47 44 55 59 57 80 74 94 94 91 88 93 99 100 86 97 97 93 73 71 44 36 46 38 45 47 45 47 46
12 13 15 15 18 15 19 13 13 28 28 34 37 36 34 42 46 42 53 36 54 72 79 80 92 87 95 100 97 98 96 93 99 89 69 61 78 48 89 92 84 78 66 62
14 13 17 16 19 19 20 20 15 24 44 36 41 43 43 32 38 50 52 65 77 78 74 64 97 87 64 88 88 94 97 98 98 98 81 80 42 76 95 96 98 97 97 96
16 15 20 19 20 21 23 30 22 14 45 62 37 43 47 35 34 43 55 64 70 74 61 85 98 72 83 79 93 98 85 96 97 96 81 98 90 83 89 97 98 99 100 98
16 16 19 20 22 20 25 27 22 22 20 43 86 36 54 50 51 46 58 55 62 63 78 86 66 72 90 95 100 93 87 98 97 96 98 99 83 80 96 100 99 97 100 99
15 17 18 21 23 23 24 28 27 28 31 54 66 68 59 53 52 57 49 69 60 72 78 74 81 79 86 100 100 86 92 96 96 98 99 89 92 99 89 93 93 96 94 90
15 18 19 22 22 25 26 27 27 34 31 36 78 75 63 64 60 61 50 61 81 68 86 81 70 88 84 97 89 92 98 100 92 100 92 97 96 94 96 98 96 94 91 88
18 18 20 22 25 26 30 32 33 33 33 50 69 99 95 70 68 79 54 71 84 63 71 77 80 95 97 95 97 100 100 100 100 96 94 97 100 100 100 100 99 100 100 100
20 20 21 24 30 29 34 33 37 48 49 64 84 92 95 89 83 85 78 67 93 96 88 69 96 99 94 94 90 94 97 100 100 100 97 100 100 100 100 100 100 100 100 100
18 20 23 27 29 30 31 38 60 63 83 93 95 97 99 93 97 100 96 99 94 95 84 86 96 99 91 92 92 96 97 100 100 100 100 100 100 100 100 100 99 100 100 100
19 20 24 26 30 31 45 90 61 83 100 92 95 99 96 92 90 100 88 97 93 96 84 95 100 97 80 85 97 99 100 100 100 100 100 100 100 100 100 100 100 100 100 100
23 23 29 33 42 69 86 97 85 93 80 82 98 96 96 93 93 96 100 95 99 82 93 94 96 65 78 92 96 99 100 100 100 100 100 100 100 100 100 100 100 100 100 98
24 27 53 73 76 81 92 95 84 72 86 98 100 100 96 89 92 98 97 87 84 94 97 91 77 65 89 93 98 100 100 100 100 100 100 100 100 100 100 100 93 87 93 96
23 27 69 63 63 62 66 72 73 85 97 100 96 91 100 94 92 94 85 81 90 98 98 79 73 86 92 98 100 100 100 100 100 100 100 100 100 100 100 100 100 96 76 85
25 37 48 55 51 55 59 62 70 73 83 100 100 94 90 95 100 84 100 99 96 90 77 89 92 94 99 100 100 100 100 100 100 100 100 100 100 100 100 96 100 99 86 98
32 51 54 53 56 64 64 68 68 60 66 100 88 92 100 81 90 85 94 98 87 94 96 96 99 100 100 100 100 100 100 100 100 100 100 100 90 100 100 100 91 97 96 100
Wind_Speed
24 25 27 27 27 25 13 3 3 22 8 7 4 3 6 12 13 17 5 5 4 5 7 4 3 5 4 21 16 12 4 6 6 10 6 18 17 7 5 3 4 3 4 2
24 26 27 27 26 26 14 4 4 13 9 4 3 7 3 9 13 8 8 6 5 6 4 4 2 7 11 23 15 17 7 4 5 9 1 13 9 18 11 5 6 3 5 3
25 26 27 27 24 21 9 3 3 10 18 8 4 4 5 7 13 4 7 2 8 6 5 3 5 7 6 19 16 24 6 5 2 4 3 4 9 19 20 4 4 3 5 18
26 27 27 25 23 18 5 6 2 4 4 6 4 3 2 5 7 6 13 6 4 5 4 6 3 4 9 7 18 10 4 4 8 13 9 15 19 21 22 23 11 5 10 13
26 27 26 25 22 15 15 4 3 8 6 7 5 8 3 1 5 2 5 1 11 3 3 2 5 9 2 3 7 7 9 3 4 6 2 15 22 24 20 13 14 16 19 11
26 27 27 26 24 21 9 7 6 2 11 5 4 2 4 4 2 5 7 3 2 4 4 12 22 14 14 7 2 6 4 3 3 0 3 2 10 18 16 10 14 4 6 4
27 28 28 28 28 26 15 10 6 5 2 3 2 2 2 4 4 4 8 8 3 7 27 17 7 5 3 7 3 6 5 5 2 3 5 7 2 7 6 9 9 11 8 6
26 26 27 28 28 25 19 13 3 5 2 4 5 12 5 11 8 2 5 8 12 23 14 4 6 5 7 6 4 10 7 3 3 4 6 4 3 6 5 6 5 3 2 5
24 24 25 25 25 23 18 17 12 7 12 7 7 4 7 2 4 7 5 10 13 17 2 5 4 4 3 7 17 11 12 13 5 4 6 4 3 4 9 2 1 2 3 5
22 23 22 22 23 21 18 19 11 7 12 10 11 6 2 7 5 3 6 13 17 15 4 4 3 2 4 4 7 7 8 5 7 6 4 4 4 16 5 3 3 8 4 7
21 22 21 19 18 20 18 18 13 18 13 13 14 15 13 5 5 2 10 4 8 7 5 3 2 4 2 3 3 2 2 3 3 2 6 5 8 6 5 4 10 9 10 10
23 21 19 18 16 17 21 15 14 17 18 9 12 16 19 18 15 7 8 3 2 4 3 3 2 4 3 2 4 2 4 1 1 4 4 4 11 8 10 11 14 14 14 14
20 20 17 16 17 15 20 18 11 5 11 14 12 10 14 18 21 18 5 4 4 5 5 2 2 5 2 2 1 2 2 3 1 4 3 7 21 6 13 14 16 19 19 20
17 16 15 17 19 12 11 23 18 8 6 5 5 20 19 11 15 20 13 8 7 7 7 5 3 3 3 0 2 4 2 3 3 6 6 23 1 15 26 25 23 22 20 20
13 13 15 17 19 15 6 12 24 14 4 4 4 7 20 15 12 14 14 11 8 6 4 6 1 1 2 1 2 3 17 4 4 4 22 14 23 31 29 24 24 26 26 26
11 11 15 16 18 17 7 6 15 12 7 3 2 3 15 15 11 9 8 11 8 5 4 4 3 2 2 3 1 12 25 14 20 11 25 28 28 21 25 31 31 27 26 26
9 11 12 13 15 15 15 7 15 10 5 3 3 3 8 23 10 7 7 8 6 4 4 3 2 3 1 3 2 25 24 24 23 22 28 25 23 30 30 27 27 26 26 25
9 9 10 16 12 14 13 15 16 8 8 8 4 5 7 20 9 9 12 7 4 7 4 2 3 1 2 3 15 24 25 25 17 26 27 24 28 29 29 29 30 29 29 28
8 7 9 12 18 9 11 9 11 18 14 6 6 3 4 16 10 8 6 6 3 4 3 2 1 1 3 5 21 24 28 28 30 34 29 27 27 26 27 28 28 27 28 27
14 10 5 6 11 13 10 7 7 9 9 8 5 7 3 11 8 5 10 5 1 2 2 6 1 1 5 16 25 26 30 30 30 33 33 35 34 32 33 31 29 26 26 27
7 5 6 9 13 10 8 9 10 10 6 10 11 9 7 8 3 3 7 2 3 2 3 2 2 1 8 26 31 31 31 32 31 29 28 33 30 30 30 32 29 28 26 26
9 7 9 10 10 10 9 4 7 6 2 12 11 13 7 6 4 3 5 0 3 2 6 3 2 3 24 34 35 34 34 35 32 31 31 33 30 29 30 28 27 28 28 27
8 6 6 8 11 10 6 7 5 4 13 9 23 10 7 4 3 4 3 5 3 9 4 2 3 22 36 38 37 37 37 36 34 34 32 34 31 30 28 29 27 27 30 28
7 7 8 5 6 3 1 3 6 11 13 26 20 7 3 4 5 2 3 3 2 5 6 4 8 36 40 39 39 38 39 37 37 35 36 35 32 32 28 25 27 26 32 29
7 7 4 3 5 10 10 13 17 15 18 18 7 5 4 4 3 3 3 7 5 0 3 5 33 41 40 41 41 40 39 40 39 36 37 35 34 32 30 29 26 29 36 31
7 9 6 5 8 20 23 23 24 26 23 6 4 3 4 4 1 6 2 2 4 5 18 35 38 39 39 40 41 39 39 36 37 36 35 35 33 32 31 30 26 31 35 35
6 6 14 11 7 10 15 20 25 22 17 8 5 6 3 6 4 6 1 1 8 32 37 37 35 37 41 42 42 40 38 38 37 38 36 34 33 32 31 27 32 28 33 24
Wind_Direction
5 3 0 357 356 0 4 41 42 3 6 46 12 48 353 355 2 19 6 10 7 352 324 298 296 17 20 12 0 333 267 292 294 269 69 75 79 0 354 271 207 97 103 89
11 8 5 2 2 1 10 55 14 12 49 71 4 335 11 14 12 17 11 346 355 9 270 315 350 344 353 5 5 345 345 8 318 327 298 33 35 358 327 241 262 59 143 169
18 14 11 7 5 4 13 25 20 30 60 57 106 14 351 336 358 58 350 349 29 340 335 349 299 342 332 343 353 3 45 33 17 100 49 357 6 359 6 358 356 54 25 132
23 20 16 14 9 10 27 39 65 20 353 8 82 25 51 342 354 4 5 1 72 328 294 321 345 347 323 342 360 5 60 121 111 134 129 69 39 22 17 37 4 60 112 94
30 26 25 23 20 21 44 70 47 72 23 360 48 3 328 19 314 324 311 138 314 294 234 210 317 346 347 240 334 9 346 133 136 184 128 63 43 24 22 22 21 70 80 57
35 32 30 30 32 35 50 82 87 96 16 17 59 264 265 279 351 258 256 259 5 333 234 304 294 271 264 264 14 327 14 307 261 328 248 183 25 9 24 36 28 16 54 34
37 34 31 32 34 36 38 69 82 80 327 61 216 347 277 262 254 210 291 307 135 308 316 319 81 87 237 275 349 17 309 324 289 347 359 49 286 15 31 65 33 33 49 36
38 34 34 34 36 34 31 41 75 103 81 301 332 333 290 322 336 307 250 304 322 327 328 40 27 356 11 340 334 355 9 285 47 84 39 137 33 12 7 3 19 15 9 357
35 33 34 34 37 34 33 53 63 88 118 354 319 325 347 338 319 331 274 338 355 2 82 51 68 31 267 338 336 340 0 16 57 42 70 66 274 317 325 269 50 301 11 342
30 30 31 32 35 36 36 54 58 91 96 32 34 27 307 341 315 234 310 339 354 13 28 55 54 354 189 15 3 331 336 356 50 18 87 294 255 310 313 55 286 325 298 305
24 26 26 27 33 36 30 59 66 86 97 73 58 48 40 8 2 69 324 1 7 10 50 72 285 61 302 70 251 327 355 34 340 0 42 352 349 357 75 253 305 300 290 290
20 20 21 22 26 36 36 56 57 76 85 93 60 46 41 36 28 7 29 80 3 28 73 38 113 32 23 198 5 319 26 123 253 150 217 269 311 286 315 299 292 303 297 297
8 11 17 19 27 37 36 46 45 78 86 72 48 31 36 38 38 36 35 40 45 47 49 120 150 78 132 77 359 314 299 159 241 345 281 287 312 268 335 321 309 315 308 304
4 11 20 21 23 28 41 39 42 54 88 100 76 43 31 34 37 41 50 71 67 51 39 65 88 106 22 236 200 40 306 185 295 272 307 330 159 324 327 321 314 315 317 305
7 20 28 26 20 18 38 32 33 35 53 121 119 56 29 24 21 38 39 46 57 40 59 49 35 45 47 9 104 24 351 330 359 305 307 298 303 317 323 320 319 318 314 308
19 28 34 30 28 18 31 24 12 21 46 92 66 99 31 23 23 22 25 27 42 65 71 96 88 53 72 70 30 9 352 330 355 319 323 319 319 317 326 323 323 323 316 314
36 44 40 36 35 37 57 47 5 21 47 64 72 32 5 10 10 13 25 37 42 55 92 72 75 39 301 89 17 336 342 341 332 333 338 325 328 322 329 329 326 322 318 319
56 65 53 39 38 40 36 34 27 38 58 51 51 313 1 9 358 0 4 9 26 40 66 59 37 336 63 52 332 339 341 341 341 339 340 330 326 328 330 330 332 330 327 328
64 65 53 39 24 21 11 17 37 49 54 80 67 12 306 343 13 351 346 360 33 26 53 36 349 144 63 330 337 345 346 344 333 336 338 336 334 330 330 332 334 329 325 325
54 47 43 36 5 9 13 30 26 31 41 48 70 354 313 334 339 347 357 6 37 36 296 329 73 139 147 356 353 347 344 342 341 337 335 336 334 332 333 333 331 329 326 325
55 46 53 29 26 24 38 31 30 5 29 13 7 357 321 345 8 300 9 289 312 46 289 87 339 2 348 349 347 347 344 342 339 339 332 331 330 329 329 330 335 337 334 331
70 85 61 30 29 27 50 355 8 32 331 355 352 337 328 320 325 311 352 26 12 296 339 64 3 252 351 345 342 340 339 340 336 338 331 333 334 334 332 331 334 341 337 335
55 53 50 25 20 32 54 355 324 339 339 333 336 325 326 315 329 294 3 29 278 315 32 254 219 345 341 340 338 335 335 336 335 336 334 333 336 331 336 340 339 333 337 334
56 50 28 65 358 2 205 233 275 304 305 322 325 299 308 321 334 320 35 264 36 17 12 289 320 333 331 333 334 334 334 335 333 333 333 334 334 328 330 332 345 343 337 336
67 55 65 66 64 17 348 341 344 340 330 335 324 296 323 326 13 16 352 6 344 240 275 293 325 325 326 329 332 332 332 333 334 332 334 334 331 331 332 333 319 337 345 337
60 57 73 76 30 14 15 6 354 353 347 350 351 338 30 6 38 19 329 60 268 300 321 318 320 321 325 328 329 330 331 334 332 334 332 333 334 336 334 336 329 332 334 334
62 73 92 87 54 23 13 5 1 360 4 14 14 41 293 317 9 347 23 272 307 315 317 318 319 321 325 327 330 332 332 333 334 335 335 335 338 339 335 331 332 329 332 326